Time,TemperatureF,DewpointF,PressureIn,WindDirection,WindDirectionDegrees,WindSpeedMPH,WindSpeedGustMPH,Humidity,HourlyPrecipIn,Conditions,Clouds,dailyrainin,SoftwareType,DateUTC
2013-10-31 00:14:00,30.0,27.0,30.23,North,0,0.0,0.0,90,0.00,,,0.01,,2013-10-31 04:14:00,
2013-10-31 00:24:00,30.0,27.0,30.23,North,0,0.0,0.0,90,0.00,,,0.01,,2013-10-31 04:24:00,
2013-10-31 00:43:00,29.0,26.0,30.23,North,0,0.0,0.0,90,0.00,,,0.01,,2013-10-31 04:43:00,
2013-10-31 00:54:00,29.0,26.0,30.23,North,0,0.0,0.0,90,0.00,,,0.01,,2013-10-31 04:54:00,
2013-10-31 01:13:00,29.0,26.0,30.23,North,0,0.0,0.0,90,0.00,,,0.01,,2013-10-31 05:13:00,
2013-10-31 01:23:00,29.0,26.0,30.23,North,0,0.0,0.0,90,0.00,,,0.01,,2013-10-31 05:23:00,
2013-10-31 01:43:00,29.0,26.0,30.22,North,0,0.0,0.0,90,0.00,,,0.01,,2013-10-31 05:43:00,
2013-10-31 01:52:00,29.0,26.0,30.23,North,0,0.0,0.0,90,0.00,,,0.01,,2013-10-31 05:52:00,
2013-10-31 02:13:00,29.0,26.0,30.23,North,0,0.0,0.0,90,0.00,,,0.01,,2013-10-31 06:13:00,
2013-10-31 02:22:00,29.0,26.0,30.23,North,0,0.0,0.0,90,0.00,,,0.01,,2013-10-31 06:22:00,
2013-10-31 02:42:00,29.0,26.0,30.22,North,0,0.0,0.0,90,0.00,,,0.01,,2013-10-31 06:42:00,
2013-10-31 02:53:00,29.0,26.0,30.23,North,0,0.0,0.0,90,0.00,,,0.01,,2013-10-31 06:53:00,
2013-10-31 03:12:00,28.0,25.0,30.22,North,0,0.0,0.0,90,0.00,,,0.01,,2013-10-31 07:12:00,
2013-10-31 03:21:00,28.0,25.0,30.22,North,0,0.0,0.0,90,0.00,,,0.01,,2013-10-31 07:21:00,
2013-10-31 03:42:00,28.0,25.0,30.22,North,0,0.0,0.0,90,0.00,,,0.01,,2013-10-31 07:42:00,
2013-10-31 03:52:00,28.0,25.0,30.22,North,0,0.0,0.0,90,0.00,,,0.01,,2013-10-31 07:52:00,
2013-10-31 04:12:00,28.0,25.0,30.21,North,0,0.0,0.0,90,0.00,,,0.01,,2013-10-31 08:12:00,
2013-10-31 04:22:00,28.0,25.0,30.20,North,0,0.0,0.0,90,0.00,,,0.01,,2013-10-31 08:22:00,
2013-10-31 04:42:00,28.0,25.0,30.20,North,0,0.0,0.0,90,0.00,,,0.01,,2013-10-31 08:42:00,
2013-10-31 04:52:00,28.0,25.0,30.20,North,0,0.0,0.0,90,0.00,,,0.01,,2013-10-31 08:52:00,
2013-10-31 05:11:00,28.0,26.0,30.19,North,0,0.0,0.0,91,0.00,,,0.01,,2013-10-31 09:11:00,
2013-10-31 05:22:00,27.0,24.0,30.19,North,0,0.0,0.0,90,0.00,,,0.01,,2013-10-31 09:22:00,
2013-10-31 05:43:00,27.0,25.0,30.20,North,0,0.0,0.0,91,0.00,,,0.01,,2013-10-31 09:43:00,
2013-10-31 05:53:00,27.0,25.0,30.20,North,0,0.0,0.0,91,0.00,,,0.01,,2013-10-31 09:53:00,
2013-10-31 06:13:00,27.0,25.0,30.21,North,0,0.0,0.0,91,0.00,,,0.01,,2013-10-31 10:13:00,
2013-10-31 06:23:00,27.0,25.0,30.21,North,0,0.0,0.0,91,0.00,,,0.01,,2013-10-31 10:23:00,
2013-10-31 06:33:00,27.0,25.0,30.21,North,0,0.0,0.0,91,0.00,,,0.01,,2013-10-31 10:33:00,
2013-10-31 06:42:00,27.0,25.0,30.21,North,0,0.0,0.0,91,0.00,,,0.01,,2013-10-31 10:42:00,
2013-10-31 06:53:00,27.0,25.0,30.20,North,0,0.0,0.0,91,0.00,,,0.01,,2013-10-31 10:53:00,
2013-10-31 07:12:00,27.0,25.0,30.19,North,0,0.0,0.0,91,0.00,,,0.01,,2013-10-31 11:12:00,
2013-10-31 07:22:00,27.0,25.0,30.20,North,0,0.0,0.0,91,0.00,,,0.01,,2013-10-31 11:22:00,
2013-10-31 07:42:00,27.0,25.0,30.20,North,0,0.0,0.0,91,0.00,,,0.01,,2013-10-31 11:42:00,
2013-10-31 07:52:00,27.0,25.0,30.20,North,0,0.0,0.0,91,0.00,,,0.01,,2013-10-31 11:52:00,
2013-10-31 08:12:00,28.0,26.0,30.20,North,0,0.0,0.0,91,0.00,,,0.01,,2013-10-31 12:12:00,
2013-10-31 08:22:00,28.0,26.0,30.20,North,0,0.0,0.0,91,0.00,,,0.01,,2013-10-31 12:22:00,
2013-10-31 08:52:00,30.0,28.0,30.20,North,0,0.0,0.0,91,0.00,,,0.01,,2013-10-31 12:52:00,
2013-10-31 09:12:00,31.0,29.0,30.21,North,0,0.0,0.0,91,0.00,,,0.01,,2013-10-31 13:12:00,
2013-10-31 09:22:00,32.0,30.0,30.22,North,0,0.0,0.0,91,0.00,,,0.01,,2013-10-31 13:22:00,
2013-10-31 09:42:00,32.0,30.0,30.22,North,0,0.0,0.0,91,0.00,,,0.01,,2013-10-31 13:42:00,
2013-10-31 09:52:00,32.0,30.0,30.22,North,0,0.0,0.0,91,0.00,,,0.01,,2013-10-31 13:52:00,
2013-10-31 10:42:00,37.0,35.0,30.17,NNW,348,0.0,1.0,92,0.00,,,0.00,,2013-10-31 14:42:00,
2013-10-31 10:52:00,38.0,36.0,30.16,North,0,0.0,0.0,92,0.00,,,0.00,,2013-10-31 14:52:00,
2013-10-31 11:11:00,38.0,36.0,30.16,NNW,344,0.0,1.0,92,0.00,,,0.00,,2013-10-31 15:11:00,
2013-10-31 11:22:00,38.0,36.0,30.16,NNW,344,0.0,1.0,92,0.00,,,0.00,,2013-10-31 15:22:00,
2013-10-31 12:12:00,42.0,39.0,30.14,NNW,343,0.0,1.0,90,0.00,,,0.00,,2013-10-31 16:12:00,
2013-10-31 12:23:00,42.0,39.0,30.14,NNW,343,0.0,1.0,90,0.00,,,0.00,,2013-10-31 16:23:00,
2013-10-31 12:53:00,46.0,43.0,30.10,SSW,199,0.0,3.0,89,0.00,,,0.00,,2013-10-31 16:53:00,
2013-10-31 13:12:00,48.0,45.0,30.09,SSW,194,0.0,3.0,88,0.00,,,0.00,,2013-10-31 17:12:00,
2013-10-31 13:22:00,49.0,46.0,30.09,SSE,159,0.0,2.0,88,0.00,,,0.00,,2013-10-31 17:22:00,
2013-10-31 13:43:00,50.0,46.0,30.08,SSE,159,0.0,3.0,86,0.00,,,0.00,,2013-10-31 17:43:00,
2013-10-31 13:52:00,50.0,46.0,30.08,SSE,159,0.0,3.0,86,0.00,,,0.00,,2013-10-31 17:52:00,
2013-10-31 14:02:00,50.0,46.0,30.08,SSE,159,0.0,3.0,86,0.00,,,0.00,,2013-10-31 18:02:00,
2013-10-31 14:22:00,50.0,46.0,30.04,West,260,0.0,1.0,85,0.00,,,0.00,,2013-10-31 18:22:00,
2013-10-31 14:42:00,51.0,47.0,30.03,North,0,0.0,0.0,85,0.00,,,0.00,,2013-10-31 18:42:00,
2013-10-31 14:52:00,51.0,47.0,30.02,North,0,0.0,0.0,85,0.00,,,0.00,,2013-10-31 18:52:00,
2013-10-31 15:11:00,52.0,47.0,30.01,North,0,0.0,0.0,84,0.00,,,0.00,,2013-10-31 19:11:00,
2013-10-31 15:21:00,52.0,47.0,30.01,North,0,0.0,0.0,84,0.00,,,0.00,,2013-10-31 19:21:00,
2013-10-31 15:32:00,52.0,47.0,30.01,North,0,0.0,0.0,84,0.00,,,0.00,,2013-10-31 19:32:00,
2013-10-31 16:22:00,52.0,49.0,29.98,North,0,0.0,0.0,89,0.06,,,0.06,,2013-10-31 20:22:00,
2013-10-31 16:42:00,52.0,49.0,29.97,North,0,0.0,0.0,90,0.06,,,0.06,,2013-10-31 20:42:00,
2013-10-31 16:52:00,52.0,49.0,29.97,North,0,0.0,0.0,90,0.06,,,0.06,,2013-10-31 20:52:00,
2013-10-31 17:11:00,52.0,49.0,29.96,SW,219,0.0,1.0,90,0.02,,,0.06,,2013-10-31 21:11:00,
2013-10-31 17:22:00,52.0,49.0,29.96,South,178,0.0,2.0,91,0.01,,,0.07,,2013-10-31 21:22:00,
2013-10-31 17:44:00,52.0,49.0,29.95,South,178,0.0,3.0,91,0.01,,,0.07,,2013-10-31 21:44:00,
2013-10-31 17:54:00,52.0,49.0,29.95,South,178,0.0,3.0,91,0.01,,,0.07,,2013-10-31 21:54:00,
2013-10-31 18:14:00,52.0,49.0,29.93,South,177,0.0,1.0,91,0.03,,,0.09,,2013-10-31 22:14:00,
2013-10-31 18:24:00,52.0,49.0,29.93,South,177,0.0,1.0,91,0.03,,,0.09,,2013-10-31 22:24:00,
2013-10-31 18:43:00,57.0,55.0,29.92,South,186,1.0,5.0,92,0.04,,,0.11,,2013-10-31 22:43:00,
2013-10-31 18:53:00,57.0,55.0,29.92,South,186,1.0,5.0,92,0.04,,,0.11,,2013-10-31 22:53:00,
2013-10-31 19:03:00,57.0,55.0,29.92,South,186,1.0,5.0,92,0.04,,,0.11,,2013-10-31 23:03:00,
2013-10-31 19:22:00,58.0,56.0,29.91,South,187,1.0,5.0,92,0.03,,,0.13,,2013-10-31 23:22:00,
2013-10-31 19:53:00,58.0,56.0,29.90,South,170,1.0,5.0,92,0.01,,,0.13,,2013-10-31 23:53:00,
2013-10-31 20:21:00,58.0,56.0,29.89,South,179,1.0,6.0,92,0.00,,,0.13,,2013-11-01 00:21:00,
2013-10-31 20:42:00,58.0,56.0,29.88,South,169,0.0,4.0,92,0.00,,,0.13,,2013-11-01 00:42:00,
2013-10-31 20:52:00,58.0,56.0,29.88,South,169,0.0,4.0,92,0.00,,,0.13,,2013-11-01 00:52:00,
2013-10-31 21:12:00,58.0,56.0,29.87,SW,227,1.0,6.0,92,0.00,,,0.13,,2013-11-01 01:12:00,
2013-10-31 21:22:00,59.0,57.0,29.87,SW,230,1.0,5.0,92,0.00,,,0.13,,2013-11-01 01:22:00,
2013-10-31 21:42:00,59.0,57.0,29.86,SW,228,2.0,9.0,92,0.00,,,0.13,,2013-11-01 01:42:00,
2013-10-31 21:52:00,59.0,57.0,29.86,SW,228,2.0,9.0,92,0.00,,,0.13,,2013-11-01 01:52:00,
2013-10-31 22:22:00,59.0,57.0,29.84,SSW,212,2.0,10.0,92,0.00,,,0.13,,2013-11-01 02:22:00,
2013-10-31 22:42:00,60.0,58.0,29.83,SSW,209,3.0,15.0,92,0.00,,,0.13,,2013-11-01 02:42:00,
2013-10-31 22:52:00,60.0,58.0,29.83,SSW,209,3.0,15.0,92,0.00,,,0.13,,2013-11-01 02:52:00,
2013-10-31 23:12:00,60.0,57.0,29.82,SSW,203,3.0,19.0,91,0.01,,,0.14,,2013-11-01 03:12:00,
2013-10-31 23:22:00,60.0,57.0,29.81,SW,214,3.0,12.0,91,0.01,,,0.14,,2013-11-01 03:22:00,
2013-10-31 23:45:00,60.0,57.0,29.80,SSW,213,4.0,13.0,90,0.01,,,0.14,,2013-11-01 03:45:00,
2013-10-31 23:54:00,60.0,57.0,29.79,SW,217,4.0,14.0,90,0.01,,,0.15,,2013-11-01 03:54:00,